TimeEST,TemperatureF,Dew PointF,Humidity,Sea Level PressureIn,VisibilityMPH,Wind Direction,Wind SpeedMPH,Gust SpeedMPH,PrecipitationIn,Events,Conditions,WindDirDegrees,DateUTC
12:52 AM,34.0,21.0,59,29.74,10.0,NW,9.2,18.4,N/A,,Clear,310,2013-03-05 05:52:00
2:52 AM,34.0,21.0,59,29.77,10.0,NW,9.2,-,N/A,,Overcast,320,2013-03-05 07:52:00
3:52 AM,34.0,21.0,59,29.79,10.0,NW,10.4,-,N/A,,Overcast,320,2013-03-05 08:52:00
4:52 AM,33.1,19.9,59,29.82,10.0,NW,8.1,-,N/A,,Scattered Clouds,310,2013-03-05 09:52:00
5:52 AM,33.1,21.0,61,29.85,10.0,NW,5.8,-,N/A,,Overcast,310,2013-03-05 10:52:00
6:52 AM,34.0,21.0,59,29.87,10.0,NW,6.9,-,N/A,,Overcast,310,2013-03-05 11:52:00
7:52 AM,36.0,21.9,57,29.90,10.0,NW,8.1,-,N/A,,Overcast,320,2013-03-05 12:52:00
8:52 AM,39.0,21.9,50,29.91,10.0,NNW,12.7,21.9,N/A,,Mostly Cloudy,340,2013-03-05 13:52:00
9:52 AM,39.9,24.1,53,29.92,10.0,North,11.5,19.6,N/A,,Overcast,360,2013-03-05 14:52:00
10:17 AM,41.0,24.1,51,29.92,10.0,North,10.4,18.4,N/A,,Overcast,350,2013-03-05 15:17:00
10:52 AM,42.1,25.0,51,29.93,10.0,North,6.9,-,N/A,,Overcast,350,2013-03-05 15:52:00
11:52 AM,45.0,27.0,49,29.94,10.0,NNE,9.2,16.1,N/A,,Overcast,20,2013-03-05 16:52:00
12:52 PM,44.1,28.0,53,29.94,10.0,NNE,10.4,16.1,N/A,,Overcast,20,2013-03-05 17:52:00
1:52 PM,45.0,27.0,49,29.95,10.0,North,8.1,18.4,N/A,,Mostly Cloudy,10,2013-03-05 18:52:00
2:52 PM,44.1,28.0,53,29.96,10.0,North,8.1,-,N/A,,Overcast,360,2013-03-05 19:52:00
3:52 PM,44.1,28.9,55,29.99,10.0,North,8.1,-,N/A,,Overcast,10,2013-03-05 20:52:00
4:52 PM,43.0,28.9,58,30.01,10.0,NNE,4.6,-,N/A,,Overcast,20,2013-03-05 21:52:00
5:52 PM,42.1,30.0,62,30.02,10.0,NNE,4.6,-,N/A,,Overcast,30,2013-03-05 22:52:00
6:52 PM,39.0,30.0,70,30.03,10.0,NNE,3.5,-,N/A,,Partly Cloudy,30,2013-03-05 23:52:00
7:52 PM,37.0,30.0,76,30.04,10.0,Calm,Calm,-,N/A,,Mostly Cloudy,0,2013-03-06 00:52:00
8:52 PM,30.0,27.0,88,30.04,10.0,SSW,3.5,-,N/A,,Clear,210,2013-03-06 01:52:00
9:52 PM,32.0,28.0,85,30.04,10.0,Calm,Calm,-,N/A,,Overcast,0,2013-03-06 02:52:00
10:52 PM,28.9,25.0,85,30.06,5.0,Calm,Calm,-,N/A,,Clear,0,2013-03-06 03:52:00
11:10 PM,28.9,25.0,85,30.05,1.8,Calm,Calm,-,N/A,,Clear,0,2013-03-06 04:10:00
11:19 PM,28.9,26.1,89,30.05,4.0,Calm,Calm,-,N/A,,Scattered Clouds,0,2013-03-06 04:19:00
11:52 PM,30.0,27.0,88,30.04,6.0,Calm,Calm,-,N/A,,Mostly Cloudy,0,2013-03-06 04:52:00